[[{"header":{"parameterUnit":"m.s-1","parameterCategory":1,"la1":30.2991,"la2":30.254,"lo1":-89.0895,"lo2":-89.0444,"dy":0.0017,"dx":0.0017,"nx":28,"ny":28,"refTime":"2023-09-16T21:00:00:Z","depth":0,"parameterNumber":2,"parameterNumberName":"U-component_of_WINDS"},"data":[0,0,0,0,0,0,0,0,0,0,0,0,0,0,0,0,0,0,0,0,0,0,0,0,0,0,0,0,0,0,0,0,0,0,0,0,0,0,0,0,0,0,0,0,0,0,0,0,0,0,0,0,0,0,0,0,0,0,0.7638,0.7638,0,0.7611,0.7611,0.761,0.7582,0.7582,0.7581,0.7581,0.7554,0.7554,0.7553,0,0,0,0,0,0,0,0,0,0,0,0,0,0.7667,0.7667,0.7638,0.7638,0.7637,0.7611,0.7611,0.761,0.7582,0.7582,0.7581,0.7581,0.7554,0.7554,0.7553,0,0,0,0,0,0,0,0,0,0,0,0,0,0.7649,0.7667,0.7638,0.762,0.7618,0.7611,0.7611,0.761,0.7582,0.7582,0.7581,0.7581,0.7554,0.7554,0.7553,0.7561,0,0,0.7551,0.7551,0,0,0,0,0,0,0,0,0.765,0.7648,0.7623,0.7621,0.7619,0.7599,0.7611,0.7594,0.7583,0.7596,0.7581,0.758,0.757,0.7568,0.7564,0.756,0.7559,0.7551,0.7551,0.7551,0.7551,0,0,0,0,0,0,0,0.7651,0.7649,0.7627,0.7623,0.7621,0.7614,0.7611,0.7608,0.7586,0.7595,0.7593,0.759,0.7568,0.7564,0.7563,0.7559,0.7551,0.7551,0.7551,0.755,0.7561,0.7562,0,0,0,0,0,0,0.7655,0.765,0.7628,0.7627,0.7634,0.7614,0.761,0.7606,0.7586,0.7583,0.759,0.7589,0.7566,0.7564,0.7562,0.7571,0.7551,0.755,0.755,0.7561,0.7561,0.7562,0,0,0,0,0,0,0.7656,0.7653,0.7629,0.7638,0.7634,0.7614,0.761,0.7606,0.7602,0.7583,0.7579,0.759,0.7565,0.7563,0.7562,0.7569,0.755,0.755,0.756,0.7561,0.7562,0.7588,0,0,0,0,0,0,0.7657,0.7654,0.7656,0.7638,0.7634,0.7629,0.761,0.7606,0.7601,0.7599,0.7582,0.7578,0.7565,0.7563,0.7561,0.7568,0.7549,0.7559,0.756,0.7561,0.7586,0.7589,0.7592,0,0,0,0,0,0.7658,0.7665,0.7656,0.7654,0.7636,0.763,0.7627,0.7611,0.7602,0.7605,0.7592,0.7579,0.7569,0.7563,0.7561,0.7568,0.7559,0.756,0.7561,0.7585,0.7589,0.7592,0,0,0,0,0,0,0.7684,0.7662,0.7653,0.7653,0.7644,0.7625,0.7627,0.7616,0.7608,0.7606,0.7587,0.7583,0.7585,0.7576,0.757,0.7575,0.7562,0.7563,0.758,0.7584,0.7587,0.7589,0.7549,0,0,0,0,0,0.769,0.7686,0.7667,0.767,0.7665,0.7648,0.7644,0.7632,0.7621,0.7617,0.7605,0.7595,0.759,0.7587,0.7581,0.7585,0.7581,0.7589,0.7592,0.7595,0.7596,0.7598,0.7601,0.7567,0.7567,0.7567,0,0,0.7702,0.7689,0.7688,0.7675,0.7666,0.7663,0.7644,0.7641,0.7639,0.7617,0.7615,0.7606,0.7594,0.7596,0.7596,0.7589,0.7605,0.7597,0.7599,0.7598,0.76,0.7603,0.7606,0.7567,0.7567,0.7567,0,0,0.7722,0.7712,0.7714,0.7705,0.7692,0.768,0.7681,0.7664,0.7657,0.7656,0.7639,0.7637,0.7628,0.762,0.7615,0.7634,0.7621,0.7633,0.7648,0.7651,0.7654,0.7656,0.7663,0.7666,0.7634,0.7634,0.7634,0,0.7739,0.7733,0.7716,0.7714,0.7709,0.769,0.7691,0.7684,0.767,0.7667,0.7659,0.7648,0.7639,0.7639,0.7644,0.764,0.7641,0.7634,0.7655,0.7657,0.7659,0.7665,0.7668,0.7635,0.7635,0.7635,0.7635,0,0.7754,0.775,0.7753,0.774,0.7735,0.7735,0.7719,0.7717,0.7706,0.7696,0.7695,0.7683,0.7674,0.7674,0.7663,0.7673,0.7669,0.7658,0.7644,0.7664,0.767,0.7672,0.7637,0.7637,0.7636,0.7636,0,0,0.7788,0.7767,0.7768,0.7762,0.7747,0.7744,0.7744,0.7736,0.7734,0.7726,0.7725,0.7719,0.7709,0.7704,0.7692,0.7695,0.7711,0.7684,0.7683,0.7689,0.7721,0.7729,0.7732,0.7703,0.7704,0.7704,0.7722,0,0.7805,0.7803,0.7789,0.7791,0.7788,0.777,0.777,0.7761,0.7752,0.7748,0.7738,0.7734,0.7721,0.7718,0.772,0.7709,0.7717,0.7707,0.7703,0.7703,0.7705,0.7735,0.7743,0.776,0.7724,0.7725,0.7725,0,0.7825,0.7817,0.7819,0.7805,0.7803,0.7803,0.7795,0.7792,0.7782,0.7775,0.777,0.7757,0.7757,0.7745,0.7744,0.7737,0.7735,0.773,0.773,0.7728,0.7714,0.7734,0.7766,0.7768,0.7728,0.7728,0.7728,0,0.7849,0.784,0.784,0.7836,0.7819,0.782,0.7813,0.7803,0.7799,0.7792,0.779,0.7783,0.778,0.7775,0.7762,0.7754,0.7763,0.7749,0.7757,0.7758,0.7759,0.7759,0.7791,0.7759,0.7759,0.7759,0.7759,0,0.7869,0.7871,0.7851,0.7851,0.7853,0.7837,0.784,0.7831,0.7822,0.7821,0.7806,0.7805,0.7787,0.7785,0.7774,0.7775,0.7774,0.7769,0.7766,0.777,0.777,0.7767,0.7765,0.7759,0.7759,0.7759,0.7759,0,0.7897,0.7883,0.7882,0.7867,0.7863,0.7865,0.7853,0.7852,0.7843,0.7841,0.784,0.7825,0.7821,0.7808,0.78,0.7794,0.7798,0.7793,0.7801,0.7799,0.7808,0.7807,0.7838,0.7841,0.7808,0.7808,0.7809,0,0.791,0.7911,0.7896,0.7894,0.7888,0.7885,0.7881,0.7866,0.7863,0.7853,0.7854,0.7849,0.7844,0.7839,0.7828,0.7823,0.7817,0.7828,0.7816,0.782,0.7817,0.7817,0.7817,0.7831,0.7831,0.7831,0.7832,0,0.7935,0.7929,0.7924,0.7917,0.7914,0.7908,0.7901,0.79,0.7884,0.7882,0.7877,0.7874,0.7867,0.7862,0.7856,0.7849,0.7838,0.7836,0.7837,0.7841,0.7846,0.7843,0.7808,0.7835,0.7835,0.7834,0.7834,0.7834,0.7955,0.7956,0.7946,0.7941,0.7935,0.7929,0.7928,0.7919,0.7915,0.7908,0.79,0.7897,0.7889,0.7878,0.7873,0.7871,0.7865,0.7867,0.7867,0.7868,0.787,0.7847,0.787,0.787,0.787,0.787,0.787,0,0.7979,0.7972,0.7969,0.796,0.7957,0.7947,0.794,0.7938,0.7935,0.7928,0.7924,0.792,0.7916,0.7905,0.79,0.79,0.7895,0.7899,0.7899,0.7898,0.7876,0.7875,0.7904,0.7904,0.7904,0.7904,0.7904,0.7904,0.7991,0.7992,0.7985,0.7982,0.7975,0.7972,0.7969,0.7964,0.7958,0.7954,0.7951,0.7944,0.7935,0.793,0.7926,0.7923,0.7921,0.7927,0.7923,0.7902,0.7899,0.7896,0.7895,0.7927,0.7927,0.7944,0.7944,0.7945]},{"header":{"parameterUnit":"m.s-1","parameterCategory":1,"la1":30.2991,"la2":30.254,"lo1":-89.0895,"lo2":-89.0444,"dy":0.0017,"dx":0.0017,"nx":28,"ny":28,"refTime":"2023-09-16T21:00:00:Z","depth":0,"parameterNumber":3,"parameterNumberName":"V-component_of_WINDS"},"data":[0,0,0,0,0,0,0,0,0,0,0,0,0,0,0,0,0,0,0,0,0,0,0,0,0,0,0,0,0,0,0,0,0,0,0,0,0,0,0,0,0,0,0,0,0,0,0,0,0,0,0,0,0,0,0,0,0,0,-3.6527,-3.6527,0,-3.6565,-3.6565,-3.6565,-3.6537,-3.6536,-3.6535,-3.6533,-3.6568,-3.657,-3.6572,0,0,0,0,0,0,0,0,0,0,0,0,0,-3.6428,-3.643,-3.6527,-3.6528,-3.6528,-3.6565,-3.6565,-3.6566,-3.6537,-3.6536,-3.6534,-3.6533,-3.6567,-3.6569,-3.6572,0,0,0,0,0,0,0,0,0,0,0,0,0,-3.6468,-3.643,-3.6527,-3.6518,-3.6518,-3.6564,-3.6565,-3.6566,-3.6538,-3.6536,-3.6534,-3.6532,-3.6566,-3.6569,-3.6572,-3.6628,0,0,-3.6582,-3.6583,0,0,0,0,0,0,0,0,-3.6466,-3.6472,-3.6519,-3.6519,-3.6519,-3.6544,-3.6543,-3.6586,-3.6538,-3.653,-3.6533,-3.6531,-3.6561,-3.6564,-3.6575,-3.6629,-3.6631,-3.6582,-3.6584,-3.6585,-3.6586,0,0,0,0,0,0,0,-3.6463,-3.647,-3.6542,-3.652,-3.652,-3.6512,-3.6515,-3.6551,-3.6555,-3.6531,-3.6529,-3.6534,-3.6561,-3.6573,-3.6576,-3.6631,-3.6582,-3.6584,-3.6586,-3.6588,-3.6735,-3.6737,0,0,0,0,0,0,-3.6462,-3.6468,-3.6541,-3.6543,-3.6488,-3.6515,-3.6519,-3.6538,-3.6555,-3.6556,-3.6535,-3.6532,-3.6568,-3.6572,-3.6577,-3.6645,-3.6585,-3.6588,-3.659,-3.6733,-3.6735,-3.6737,0,0,0,0,0,0,-3.646,-3.6469,-3.6539,-3.6505,-3.6513,-3.6519,-3.654,-3.654,-3.6552,-3.6558,-3.6559,-3.6547,-3.6567,-3.6573,-3.6616,-3.6646,-3.6589,-3.6592,-3.673,-3.6733,-3.6736,-3.678,0,0,0,0,0,0,-3.6457,-3.6468,-3.649,-3.6506,-3.6515,-3.6579,-3.6542,-3.6542,-3.6557,-3.6554,-3.6569,-3.657,-3.6566,-3.6612,-3.6619,-3.6649,-3.6594,-3.6727,-3.6732,-3.6735,-3.6776,-3.6784,-3.6791,0,0,0,0,0,-3.6454,-3.6499,-3.6491,-3.65,-3.6543,-3.658,-3.6586,-3.6581,-3.656,-3.6582,-3.6586,-3.657,-3.6641,-3.6616,-3.6625,-3.6655,-3.6726,-3.673,-3.6735,-3.6772,-3.6782,-3.6791,0,0,0,0,0,0,-3.6484,-3.6501,-3.6492,-3.6545,-3.6562,-3.6575,-3.6603,-3.6592,-3.6614,-3.6609,-3.6601,-3.6605,-3.6651,-3.6657,-3.663,-3.6711,-3.668,-3.6686,-3.6705,-3.6715,-3.6723,-3.672,-3.6597,0,0,0,0,0,-3.6498,-3.6528,-3.654,-3.6585,-3.6594,-3.6597,-3.6613,-3.6609,-3.6625,-3.6632,-3.6639,-3.6655,-3.6681,-3.6698,-3.6722,-3.6776,-3.678,-3.6802,-3.6809,-3.6816,-3.6821,-3.6852,-3.6862,-3.6752,-3.6752,-3.6752,0,0,-3.6524,-3.6537,-3.6557,-3.6592,-3.6604,-3.6635,-3.6603,-3.6636,-3.6659,-3.6636,-3.6679,-3.6685,-3.6701,-3.6751,-3.6773,-3.6758,-3.6853,-3.6821,-3.6826,-3.6829,-3.6858,-3.6868,-3.6878,-3.6756,-3.6755,-3.6755,0,0,-3.659,-3.6602,-3.6642,-3.6656,-3.6677,-3.6678,-3.6688,-3.6704,-3.6708,-3.6751,-3.6735,-3.6761,-3.6805,-3.6819,-3.6831,-3.6904,-3.689,-3.6912,-3.6952,-3.6982,-3.6991,-3.6998,-3.7025,-3.7035,-3.6917,-3.6918,-3.6918,0,-3.662,-3.6668,-3.6664,-3.6699,-3.6716,-3.6698,-3.6738,-3.6751,-3.6778,-3.6789,-3.6771,-3.6829,-3.6839,-3.6892,-3.691,-3.692,-3.6931,-3.691,-3.699,-3.6997,-3.7005,-3.703,-3.704,-3.692,-3.692,-3.692,-3.6919,0,-3.6705,-3.6738,-3.6767,-3.6796,-3.6815,-3.6853,-3.6854,-3.6874,-3.6868,-3.6872,-3.6916,-3.6927,-3.6955,-3.6967,-3.696,-3.7019,-3.701,-3.6991,-3.696,-3.7018,-3.7042,-3.7052,-3.6924,-3.6923,-3.6922,-3.6922,0,0,-3.679,-3.6818,-3.6829,-3.6843,-3.6864,-3.6889,-3.6926,-3.6955,-3.6972,-3.6991,-3.7022,-3.7061,-3.7045,-3.706,-3.7054,-3.708,-3.7139,-3.7059,-3.7059,-3.7075,-3.7207,-3.7221,-3.7233,-3.713,-3.7131,-3.7133,-3.7206,0,-3.6858,-3.6924,-3.6922,-3.6984,-3.7015,-3.6999,-3.7031,-3.7048,-3.7053,-3.7079,-3.7083,-3.7112,-3.7087,-3.7096,-3.7121,-3.7127,-3.7166,-3.7121,-3.7158,-3.716,-3.7156,-3.7245,-3.726,-3.7329,-3.7215,-3.7217,-3.7218,0,-3.6945,-3.697,-3.7035,-3.7055,-3.7068,-3.7097,-3.7124,-3.7149,-3.7167,-3.7169,-3.7186,-3.7177,-3.7214,-3.7182,-3.7233,-3.7203,-3.7218,-3.7223,-3.7225,-3.7229,-3.7193,-3.7253,-3.735,-3.7361,-3.7232,-3.7231,-3.723,0,-3.7003,-3.7052,-3.7098,-3.711,-3.7133,-3.7154,-3.7165,-3.7181,-3.7199,-3.7222,-3.7234,-3.726,-3.7274,-3.7295,-3.7293,-3.7269,-3.7345,-3.7312,-3.7348,-3.7348,-3.7365,-3.7364,-3.7467,-3.7373,-3.7373,-3.7372,-3.7372,0,-3.7079,-3.712,-3.7125,-3.7153,-3.7199,-3.7196,-3.724,-3.7248,-3.7264,-3.7293,-3.728,-3.7307,-3.7303,-3.733,-3.7329,-3.7372,-3.7378,-3.7381,-3.738,-3.7383,-3.7382,-3.7393,-3.7388,-3.7375,-3.7375,-3.7374,-3.7374,0,-3.7151,-3.7156,-3.7205,-3.7224,-3.723,-3.7263,-3.7278,-3.7305,-3.7309,-3.7346,-3.7355,-3.736,-3.7392,-3.7393,-3.7428,-3.7427,-3.7481,-3.7474,-3.7475,-3.7474,-3.751,-3.7507,-3.7624,-3.764,-3.7534,-3.7535,-3.7536,0,-3.72,-3.7232,-3.7255,-3.7275,-3.7287,-3.7318,-3.7337,-3.7336,-3.7356,-3.738,-3.7404,-3.7435,-3.746,-3.7511,-3.7518,-3.7545,-3.754,-3.7579,-3.7543,-3.7546,-3.7542,-3.7541,-3.7544,-3.7586,-3.7587,-3.7588,-3.7589,0,-3.7287,-3.7288,-3.7317,-3.7348,-3.7371,-3.7394,-3.7416,-3.7432,-3.7433,-3.7456,-3.7489,-3.7509,-3.7546,-3.7577,-3.7604,-3.7613,-3.7602,-3.76,-3.761,-3.7613,-3.7613,-3.7615,-3.7495,-3.7597,-3.7596,-3.7596,-3.7595,-3.7595,-3.735,-3.7378,-3.74,-3.7432,-3.7449,-3.747,-3.7497,-3.7505,-3.7534,-3.7566,-3.7562,-3.76,-3.7618,-3.7653,-3.7665,-3.7694,-3.768,-3.7694,-3.7698,-3.7702,-3.7706,-3.7608,-3.7698,-3.7698,-3.7698,-3.7698,-3.7698,0,-3.7437,-3.7451,-3.7481,-3.7513,-3.7539,-3.7528,-3.7551,-3.7573,-3.7607,-3.7626,-3.7652,-3.769,-3.7721,-3.7731,-3.776,-3.7781,-3.7777,-3.7789,-3.7788,-3.7791,-3.7716,-3.7706,-3.7793,-3.7793,-3.7793,-3.7793,-3.7792,-3.7792,-3.7486,-3.7534,-3.7538,-3.7594,-3.7606,-3.7645,-3.766,-3.7679,-3.7694,-3.7739,-3.7765,-3.7772,-3.7788,-3.7818,-3.7846,-3.7848,-3.786,-3.7875,-3.7875,-3.7805,-3.7796,-3.7786,-3.7776,-3.7877,-3.7877,-3.7947,-3.7947,-3.7948]}]]